{"data":{"norad_id":67435,"intl_designator":"2026-007A","name":"HULIANWANG DIGUI-137","alt_names":[],"object_type":"PAYLOAD","status":"ACTIVE","operator":null,"country":"PRC","launch_date":"2026-01-13","launch_site_code":"WSC","launch_vehicle":null,"mission":null,"orbit_class":"UNKNOWN","rcs_meters":null,"size_class":null,"mass_kg":null,"dimensions":null,"purposes":[],"wikipedia_slug":null,"has_3d_model":false,"image_url":null,"decayed_at":null,"tle_current":{"epoch":"2026-09-20T22:25:29.441856Z","epoch_age_seconds":62831,"freshness":"FRESH","line1":"1 67435U 26007A   26263.93436854 -.00000108  00000+0  33860-4 0  9994","line2":"2 67435  50.0066 102.4768 0000392  26.6979 333.3913 13.29330630 33523","mean_motion":13.2933063,"eccentricity":3.92e-5,"inclination_deg":50.0066,"raan_deg":102.4768,"arg_perigee_deg":26.6979,"mean_anomaly_deg":333.3913,"bstar":3.386e-5,"rev_number":3352,"period_min":108.32519521498,"perigee_km":1148.994018238,"apogee_km":1149.5841684437,"semimajor_km":7527.4260933408,"source":"CELESTRAK","updated_at":"2026-09-21T09:00:16.632295Z"}}}